West Palm Beach, FL

11:24 AM EDT on October 14, 2019 (GMT -0400)
Palm Beach International

Weather History for KPBI - May, 2019

Change the Weather History Date:

Thursday, May 30, 2019

  Actual Average Record
Temperature  
Mean Temperature 83 °F 80 °F  
Max Temperature 88 °F 87 °F 96 °F (1945)
Min Temperature 78 °F 73 °F 59 °F (1920)
Degree Days  
Heating Degree Days 0 0  
Month to date heating degree days 0 0  
Since 1 July heating degree days 144 233  
Cooling Degree Days 18 15  
Month to date cooling degree days 455 397  
Year to date cooling degree days 1380 1092  
Growing Degree Days 33 (Base 50)    
Moisture  
Dew Point 71 °F    
Average Humidity 66    
Maximum Humidity 79    
Minimum Humidity 53    
Precipitation  
Precipitation 0.00 in 0.23 in 7.28 in (1897)
Month to date precipitation 5.29 4.29  
Year to date precipitation 21.01 18.49  
Snow  
Snow 0.00 in - - ()
Month to date snowfall 0.0  
Since 1 July snowfall 0.0  
Snow Depth 0.00 in    
Sea Level Pressure  
Sea Level Pressure 30.00 in    
Wind  
Wind Speed 10 mph (SE)    
Max Wind Speed 18 mph    
Max Gust Speed 23 mph    
Visibility 10 miles    
Events      
T = Trace of Precipitation, MM = Missing Value Source: NWS Daily Summary

Daily Weather History Graph

Daily Weather History Graph

Search for Another Location

Airport or City:

Astronomy

May. 30, 2019 Rise Set
Actual Time 6:27 AM EDT 8:08 PM EDT
Civil Twilight 6:01 AM EDT 8:34 PM EDT
Nautical Twilight 5:30 AM EDT 9:05 PM EDT
Astronomical Twilight 4:58 AM EDT 9:38 PM EDT
Moon 4:03 AM EDT (5/30) 4:40 PM EDT (5/30)
Length of Visible Light 14h 32m
Length of Day
13h 41m
Waning Crescent, 15% of the Moon is Illuminated
May 30
Waning Crescent
Jun 3
New
Jun 10
First Quarter
Jun 17
Full
Jun 25
Last Quarter

Hourly Weather History & Observations

Time (EDT) Temp. Heat Index Dew Point Humidity Pressure Visibility Wind Dir Wind Speed Gust Speed Precip Events Conditions
12:53 AM 80.1 °F 83.2 °F 70.0 °F 71% 30.00 in 10.0 mi SE 8.1 mph - N/A   Scattered Clouds
1:53 AM 79.0 °F - 70.0 °F 74% 29.99 in 10.0 mi SE 6.9 mph - N/A   Partly Cloudy
2:53 AM 79.0 °F - 70.0 °F 74% 29.99 in 10.0 mi SE 8.1 mph - N/A   Partly Cloudy
3:53 AM 78.1 °F - 70.0 °F 76% 29.98 in 10.0 mi SE 4.6 mph - N/A   Partly Cloudy
4:53 AM 78.1 °F - 70.0 °F 76% 29.97 in 10.0 mi SSE 5.8 mph - N/A   Partly Cloudy
5:53 AM 78.1 °F - 70.0 °F 76% 29.98 in 10.0 mi SSE 4.6 mph - N/A   Partly Cloudy
6:53 AM 78.1 °F - 70.0 °F 76% 29.99 in 10.0 mi SSE 4.6 mph - N/A   Partly Cloudy
7:53 AM 81.0 °F 84.4 °F 70.0 °F 69% 30.01 in 10.0 mi SE 8.1 mph - N/A   Scattered Clouds
8:53 AM 82.9 °F 87.5 °F 71.1 °F 67% 30.02 in 10.0 mi ESE 9.2 mph - N/A   Scattered Clouds
9:53 AM 84.9 °F 89.4 °F 70.0 °F 61% 30.03 in 10.0 mi ESE 10.4 mph - N/A   Scattered Clouds
10:53 AM 86.0 °F 90.7 °F 70.0 °F 59% 30.03 in 10.0 mi SE 13.8 mph - N/A   Scattered Clouds
11:53 AM 87.1 °F 92.0 °F 70.0 °F 57% 30.03 in 10.0 mi SE 12.7 mph - N/A   Scattered Clouds
12:53 PM 86.0 °F 90.7 °F 70.0 °F 59% 30.02 in 10.0 mi ESE 12.7 mph - N/A   Scattered Clouds
1:53 PM 88.0 °F 93.8 °F 71.1 °F 57% 30.01 in 10.0 mi ESE 13.8 mph 19.6 mph N/A   Scattered Clouds
2:53 PM 88.0 °F 91.4 °F 68.0 °F 51% 30.01 in 10.0 mi ESE 12.7 mph - N/A   Scattered Clouds
3:53 PM 87.1 °F 92.0 °F 70.0 °F 57% 29.99 in 10.0 mi SSE 12.7 mph - N/A   Scattered Clouds
4:53 PM 86.0 °F 90.7 °F 70.0 °F 59% 29.98 in 10.0 mi SE 13.8 mph - N/A   Scattered Clouds
5:53 PM 86.0 °F 91.5 °F 71.1 °F 61% 29.97 in 10.0 mi SE 13.8 mph - N/A   Scattered Clouds
6:53 PM 84.0 °F 89.0 °F 71.1 °F 65% 29.98 in 10.0 mi SE 13.8 mph - N/A   Scattered Clouds
7:53 PM 82.0 °F 86.3 °F 71.1 °F 69% 29.99 in 10.0 mi SE 10.4 mph - N/A   Scattered Clouds
8:53 PM 81.0 °F 85.2 °F 72.0 °F 74% 29.99 in 10.0 mi SE 9.2 mph - N/A   Scattered Clouds
9:53 PM 81.0 °F 85.8 °F 73.0 °F 77% 30.00 in 10.0 mi SE 10.4 mph - N/A   Scattered Clouds
10:53 PM 81.0 °F 85.2 °F 72.0 °F 74% 30.01 in 10.0 mi SE 9.2 mph - N/A   Scattered Clouds
11:53 PM 80.1 °F 83.8 °F 72.0 °F 76% 30.01 in 10.0 mi SE 9.2 mph - N/A   Partly Cloudy